Vorticity
12 19 10 12 18 10 3 8 8 8 9 10 8 0 5 7 7 17 2 8 7 12 14 18 15 7 14 16 10 -4 -1 8 7 14 18 2 15 9 9 10 9 8 7 8 7 6 9 12 8 9 6 7 7 8
-5 11 17 20 -3 5 12 5 4 10 10 4 7 4 8 11 6 9 7 13 14 15 13 14 5 6 9 2 2 4 6 9 16 8 2 13 13 9 10 9 8 7 6 5 9 7 7 10 8 7 8 7 6 6
3 1 8 16 5 7 5 8 6 4 6 4 5 7 9 10 12 11 16 10 14 12 12 4 12 5 0 1 -6 21 14 9 5 12 13 11 10 11 9 8 8 7 6 9 6 8 10 9 8 6 5 6 7 6
16 10 12 14 20 18 14 6 2 2 6 8 6 9 11 12 18 12 9 12 13 13 18 13 6 4 9 17 11 15 11 9 13 11 10 10 11 10 8 10 11 6 6 8 6 8 6 7 4 6 7 7 5 4
4 4 19 11 14 16 12 13 12 9 7 10 15 16 15 12 10 12 7 11 14 11 6 10 7 19 10 9 7 9 11 10 9 10 12 10 8 7 9 9 7 6 8 7 6 7 6 5 6 4 4 7 7 6
14 21 8 3 7 9 10 14 14 10 15 15 13 10 11 12 9 8 14 9 8 2 8 11 2 15 14 7 8 10 13 10 8 8 9 12 9 7 6 8 7 8 7 6 6 4 5 6 6 4 5 6 5 9
18 18 13 9 14 18 13 4 10 10 10 10 5 7 10 13 15 15 13 14 13 24 9 11 15 1 6 8 10 9 9 10 11 9 11 8 4 4 7 7 9 6 6 7 4 5 3 2 4 4 7 8 10 14
18 15 2 5 13 16 17 18 11 9 10 11 12 15 12 8 10 12 11 11 9 7 10 10 11 10 9 8 8 11 11 10 8 8 6 4 5 8 8 7 6 8 6 3 4 4 4 3 4 7 10 11 13 15
9 8 8 12 14 10 13 13 10 10 11 12 12 13 17 13 12 12 13 14 5 4 7 9 9 11 9 8 11 11 9 8 6 6 5 6 7 7 6 6 6 6 6 3 4 3 4 8 9 11 11 15 16 15
13 13 14 16 16 11 8 11 14 13 14 13 14 12 9 11 13 16 12 9 8 8 8 10 10 9 11 11 11 8 7 7 7 5 6 6 8 7 7 7 6 5 3 2 3 5 6 10 13 15 14 15 15 13
6 8 8 7 9 10 10 11 10 15 13 11 10 8 10 12 12 6 6 5 10 9 9 8 7 10 12 9 6 6 8 7 5 6 7 5 5 5 7 5 3 4 6 6 7 8 11 11 12 15 16 14 13 11
11 11 11 11 13 13 13 12 15 11 10 8 15 10 9 11 11 5 6 7 10 8 9 9 12 12 9 6 8 7 5 6 7 5 5 5 6 4 3 2 3 6 7 7 9 10 13 14 13 12 11 11 10 10
12 10 10 10 12 12 12 6 7 7 5 9 6 4 4 8 8 5 10 10 8 8 9 11 11 7 7 7 7 7 7 7 7 5 7 6 4 3 5 7 8 8 8 9 10 13 13 11 10 10 8 6 8 10
9 8 8 9 9 9 9 6 6 5 6 9 10 7 4 7 11 9 10 7 7 10 10 9 7 5 7 7 6 6 7 6 6 4 2 2 4 7 7 8 7 6 7 9 10 10 9 7 7 8 10 14 16 14
13 15 16 13 11 14 14 9 7 7 5 7 7 8 10 10 8 8 8 8 9 11 9 8 7 5 6 7 6 7 7 4 2 4 6 8 7 8 7 7 8 9 10 12 10 8 6 6 8 11 13 14 11 13
13 12 9 12 10 10 9 9 9 8 8 8 9 9 8 8 9 9 9 10 9 7 7 6 6 7 5 6 6 5 7 7 7 8 9 10 8 10 11 10 12 12 10 6 5 7 8 11 15 16 19 20 18 20
16 14 15 14 12 10 7 10 8 8 8 11 8 9 11 8 10 12 10 9 7 7 6 6 7 5 6 6 8 8 8 9 9 8 8 11 10 8 10 9 8 7 6 7 8 13 17 22 22 23 21 20 19 21
11 13 11 9 8 11 10 7 9 9 12 11 9 10 11 11 10 9 8 6 6 6 7 6 6 9 8 9 10 7 7 6 10 10 9 10 11 9 7 6 4 6 10 15 21 22 22 25 21 18 22 22 23 22
7 9 9 8 8 10 11 12 9 7 8 8 10 9 9 8 7 6 6 7 6 6 7 9 6 9 8 8 9 11 12 11 9 7 9 6 4 3 4 7 12 16 20 22 22 21 22 19 18 19 18 18 19 20
8 8 7 8 7 6 5 7 9 9 8 7 8 8 7 7 7 7 8 8 8 7 9 11 10 9 10 11 11 9 9 9 7 5 3 3 4 6 11 16 19 19 21 23 23 21 17 17 17 14 14 17 17 19
8 6 6 6 7 7 8 9 10 5 8 9 9 7 5 8 8 9 9 7 10 7 12 10 10 9 10 9 9 9 7 5 5 6 6 6 7 10 19 20 19 21 21 19 18 19 18 19 17 15 15 16 19 19
6 11 10 9 11 11 9 9 5 5 10 6 9 7 7 8 9 10 9 10 11 10 9 9 9 10 9 7 5 6 5 5 5 5 8 14 17 23 20 19 19 18 20 16 15 17 17 16 16 15 14 19 19 19
11 7 11 11 10 9 6 11 10 8 9 10 11 11 11 12 10 12 10 10 10 8 7 6 6 5 2 5 3 3 7 8 10 13 17 18 17 17 16 18 19 17 18 21 17 19 18 16 13 14 16 18 17 15
13 12 10 7 12 10 11 9 10 11 10 13 11 11 11 9 8 9 8 12 8 7 6 6 4 4 4 3 4 9 14 12 13 14 19 16 16 18 18 18 19 17 18 16 15 15 15 16 16 15 18 15 14 16
11 6 11 11 10 10 10 11 11 14 10 10 11 7 6 7 8 8 5 5 6 5 6 3 2 6 6 6 10 12 9 10 13 18 20 13 17 15 15 17 23 23 20 17 15 18 17 18 18 14 17 15 15 16
10 10 9 11 8 10 10 12 15 14 10 7 7 7 7 6 5 5 1 3 5 2 3 7 6 5 9 13 16 16 16 15 14 19 22 19 16 17 18 23 25 30 22 17 17 18 19 20 18 14 14 14 12 15
9 9 10 11 10 13 15 12 9 7 6 5 5 6 6 5 3 3 4 3 4 3 6 9 11 11 11 12 19 18 10 7 24 27 25 21 15 11 15 19 28 31 30 29 18 21 17 18 17 14 12 14 12 10
11 15 15 12 13 10 7 7 6 7 7 6 7 5 5 4 3 5 3 2 7 7 5 9 14 6 4 16 12 10 8 33 33 29 18 7 7 12 13 22 24 30 29 25 22 19 17 16 17 13 12 13 13 11
13 13 9 8 7 8 7 7 7 7 5 4 3 2 4 5 7 8 3 5 10 13 13 10 5 12 21 17 10 15 34 31 27 16 3 3 11 19 11 19 19 24 26 26 22 16 22 18 16 12 12 15 16 12
8 9 9 8 8 8 5 2 4 4 3 3 6 6 12 13 4 12 6 15 22 26 30 33 30 21 14 14 26 36 25 24 10 6 4 5 9 17 14 18 18 19 22 17 16 21 22 16 16 13 12 13 16 15
10 9 8 2 4 7 6 4 4 7 10 8 6 7 4 5 13 21 16 10 5 5 7 9 14 22 25 30 31 25 27 14 2 2 5 7 15 19 18 19 19 18 20 21 21 20 20 18 16 14 10 13 18 17
2 1 2 4 7 5 8 8 7 4 4 13 26 37 29 23 14 23 8 -3 28 31 28 27 26 23 22 21 24 30 18 7 4 5 5 11 17 19 19 16 20 16 15 18 20 18 15 15 14 10 13 16 16 18
6 7 9 11 11 7 5 7 8 19 22 1 8 7 2 3 10 -2 16 32 24 29 29 24 22 20 20 20 20 15 9 6 5 8 8 11 18 19 19 17 15 20 19 16 17 19 16 14 13 16 17 17 18 10
Height
5531 5541 5551 5561 5570 5580 5590 5599 5608 5617 5626 5634 5641 5648 5655 5661 5667 5672 5676 5680 5685 5689 5692 5697 5701 5705 5707 5711 5713 5716 5717 5719 5719 5718 5718 5718 5718 5717 5715 5713 5711 5710 5706 5705 5701 5700 5697 5695 5690 5687 5682 5677 5674 5669
5528 5537 5547 5557 5566 5575 5584 5595 5604 5612 5620 5628 5635 5641 5648 5653 5658 5662 5668 5672 5676 5681 5686 5690 5694 5697 5701 5704 5706 5707 5710 5709 5709 5709 5710 5709 5709 5708 5707 5706 5704 5701 5699 5696 5695 5694 5688 5686 5681 5676 5672 5669 5665 5659
5526 5536 5544 5553 5562 5570 5580 5590 5598 5606 5614 5621 5628 5634 5639 5644 5650 5655 5659 5664 5668 5672 5677 5682 5686 5689 5692 5694 5697 5700 5700 5700 5701 5701 5701 5701 5700 5700 5699 5698 5696 5693 5690 5688 5686 5686 5680 5678 5673 5668 5663 5659 5654 5649
5525 5533 5540 5548 5557 5565 5574 5584 5593 5601 5608 5615 5621 5627 5632 5637 5643 5648 5652 5657 5661 5667 5671 5675 5678 5681 5684 5687 5689 5691 5691 5692 5693 5692 5692 5692 5691 5691 5690 5690 5689 5684 5681 5680 5678 5674 5670 5667 5662 5657 5652 5648 5642 5637
5522 5530 5539 5546 5554 5562 5570 5579 5587 5595 5602 5609 5614 5620 5625 5630 5635 5641 5645 5649 5654 5661 5664 5667 5670 5675 5677 5679 5681 5682 5683 5684 5683 5684 5684 5684 5683 5681 5682 5682 5680 5675 5673 5671 5667 5664 5661 5656 5651 5646 5640 5636 5630 5624
5521 5529 5536 5543 5550 5558 5565 5573 5581 5589 5595 5602 5608 5614 5618 5624 5630 5634 5637 5643 5648 5652 5657 5661 5665 5666 5669 5671 5673 5674 5675 5675 5675 5676 5676 5676 5674 5673 5673 5673 5670 5667 5664 5661 5658 5654 5649 5645 5640 5634 5630 5624 5618 5611
5517 5525 5532 5538 5546 5554 5561 5568 5576 5583 5589 5596 5601 5607 5613 5619 5623 5629 5635 5639 5642 5647 5651 5654 5657 5660 5662 5663 5664 5665 5666 5666 5667 5667 5668 5667 5666 5665 5664 5662 5659 5656 5654 5650 5647 5643 5639 5633 5627 5622 5616 5611 5604 5597
5514 5522 5530 5537 5543 5550 5557 5564 5572 5578 5584 5590 5596 5602 5608 5612 5618 5623 5627 5632 5636 5641 5644 5646 5650 5653 5654 5655 5656 5657 5658 5658 5659 5659 5659 5658 5657 5655 5654 5651 5648 5646 5642 5638 5633 5629 5625 5620 5613 5606 5600 5594 5588 5582
5512 5520 5527 5534 5541 5548 5554 5560 5567 5574 5579 5585 5591 5597 5602 5608 5613 5618 5622 5627 5631 5636 5636 5640 5643 5644 5645 5647 5647 5649 5649 5650 5650 5650 5650 5649 5648 5645 5643 5640 5637 5634 5630 5625 5621 5616 5610 5604 5598 5593 5586 5578 5571 5566
5510 5517 5524 5532 5539 5545 5551 5557 5563 5568 5574 5581 5588 5593 5597 5603 5608 5613 5616 5620 5624 5626 5630 5633 5635 5637 5638 5638 5639 5641 5641 5641 5640 5642 5640 5639 5637 5634 5631 5628 5625 5621 5617 5613 5607 5602 5596 5589 5583 5576 5569 5563 5557 5551
5507 5513 5521 5527 5534 5539 5546 5552 5558 5565 5572 5578 5583 5589 5594 5598 5603 5607 5609 5614 5616 5619 5623 5625 5627 5628 5629 5631 5631 5632 5631 5631 5631 5632 5629 5628 5626 5622 5619 5616 5611 5607 5602 5597 5592 5586 5580 5573 5567 5560 5553 5546 5540 5535
5505 5512 5519 5525 5530 5536 5543 5549 5555 5563 5569 5574 5578 5582 5588 5592 5596 5600 5602 5606 5610 5613 5615 5617 5618 5620 5621 5622 5622 5623 5623 5622 5621 5620 5618 5616 5614 5611 5607 5603 5598 5593 5588 5582 5576 5569 5562 5555 5549 5543 5538 5534 5528 5521
5503 5509 5514 5520 5526 5533 5539 5545 5552 5557 5562 5568 5573 5578 5582 5586 5588 5592 5597 5601 5603 5605 5606 5609 5611 5612 5613 5614 5614 5614 5613 5612 5611 5609 5607 5604 5599 5596 5592 5588 5584 5579 5573 5566 5559 5551 5545 5540 5532 5524 5521 5514 5508 5503
5498 5504 5510 5517 5523 5530 5536 5542 5547 5554 5560 5565 5569 5572 5576 5578 5582 5588 5590 5593 5595 5597 5599 5601 5602 5604 5604 5604 5603 5603 5602 5601 5599 5597 5593 5589 5586 5583 5578 5573 5568 5562 5555 5547 5541 5534 5527 5521 5515 5507 5497 5489 5483 5480
5496 5502 5508 5513 5520 5526 5533 5538 5543 5549 5553 5559 5563 5566 5570 5574 5577 5580 5583 5586 5588 5589 5591 5592 5594 5595 5595 5594 5593 5592 5591 5588 5586 5583 5579 5576 5572 5566 5561 5556 5550 5543 5535 5529 5522 5515 5508 5500 5493 5488 5481 5472 5465 5460
5493 5499 5504 5510 5517 5522 5528 5533 5538 5544 5548 5553 5557 5561 5565 5568 5570 5573 5575 5577 5579 5581 5583 5584 5584 5584 5584 5583 5582 5580 5579 5576 5573 5569 5564 5559 5553 5549 5544 5537 5530 5524 5518 5511 5504 5497 5489 5480 5472 5466 5461 5454 5446 5441
5491 5496 5502 5508 5514 5520 5524 5530 5535 5539 5544 5549 5553 5556 5559 5562 5564 5566 5567 5570 5572 5573 5574 5574 5574 5574 5573 5571 5570 5568 5565 5562 5558 5552 5548 5544 5540 5535 5528 5522 5516 5510 5503 5495 5486 5477 5469 5460 5452 5445 5439 5436 5429 5423
5488 5495 5500 5506 5511 5515 5521 5525 5531 5536 5540 5543 5546 5549 5551 5554 5556 5559 5560 5562 5563 5563 5563 5564 5563 5563 5561 5559 5556 5554 5550 5546 5542 5538 5534 5529 5523 5516 5509 5504 5498 5491 5483 5475 5467 5457 5449 5442 5434 5428 5422 5417 5412 5407
5486 5491 5497 5502 5507 5512 5517 5521 5526 5529 5533 5536 5539 5542 5545 5547 5548 5550 5551 5552 5552 5552 5553 5553 5551 5549 5547 5545 5542 5538 5535 5532 5530 5526 5520 5514 5508 5502 5494 5486 5478 5471 5463 5454 5446 5438 5431 5424 5417 5412 5407 5402 5397 5392
5482 5487 5492 5497 5502 5507 5511 5515 5519 5523 5526 5529 5531 5534 5536 5538 5539 5540 5541 5542 5542 5542 5541 5540 5539 5537 5535 5532 5529 5526 5523 5520 5515 5510 5505 5498 5490 5484 5476 5466 5457 5449 5443 5435 5429 5421 5416 5411 5404 5398 5393 5389 5384 5380
5478 5483 5488 5493 5497 5502 5506 5509 5512 5515 5518 5521 5523 5525 5527 5528 5529 5531 5532 5532 5532 5531 5530 5529 5528 5525 5522 5519 5516 5512 5507 5502 5497 5491 5484 5478 5471 5464 5457 5448 5438 5431 5424 5418 5413 5408 5401 5396 5392 5387 5383 5379 5374 5370
5474 5479 5483 5487 5491 5495 5498 5501 5505 5507 5511 5513 5514 5516 5518 5520 5521 5521 5521 5520 5519 5520 5520 5517 5515 5513 5510 5506 5501 5494 5489 5485 5479 5473 5466 5457 5450 5444 5436 5429 5421 5417 5411 5403 5397 5394 5389 5384 5379 5376 5372 5369 5365 5361
5469 5473 5477 5481 5485 5488 5492 5495 5497 5499 5502 5504 5506 5508 5510 5511 5511 5511 5511 5510 5509 5509 5507 5505 5502 5499 5495 5491 5487 5482 5474 5467 5461 5455 5448 5438 5431 5424 5417 5410 5403 5398 5395 5389 5382 5380 5376 5372 5368 5366 5363 5360 5357 5354
5463 5468 5471 5475 5478 5482 5485 5487 5490 5493 5494 5497 5499 5500 5501 5502 5502 5502 5502 5498 5496 5495 5493 5490 5486 5484 5481 5477 5472 5466 5457 5447 5441 5439 5431 5416 5413 5410 5402 5395 5389 5383 5378 5373 5369 5367 5364 5361 5358 5356 5354 5351 5349 5346
5461 5463 5467 5470 5473 5476 5478 5480 5482 5485 5488 5490 5491 5492 5493 5493 5494 5494 5493 5487 5485 5483 5480 5476 5473 5470 5467 5461 5455 5451 5443 5430 5424 5422 5418 5402 5396 5392 5387 5380 5374 5369 5362 5357 5355 5354 5352 5350 5348 5346 5344 5343 5341 5339
5454 5458 5462 5464 5467 5470 5471 5474 5477 5479 5480 5482 5483 5483 5484 5485 5486 5487 5484 5477 5474 5470 5466 5463 5459 5454 5450 5442 5436 5432 5426 5417 5408 5403 5400 5390 5383 5375 5370 5366 5361 5358 5348 5343 5342 5341 5340 5338 5337 5336 5335 5334 5333 5332
5450 5453 5456 5458 5460 5463 5465 5467 5470 5472 5473 5474 5475 5475 5475 5476 5477 5475 5470 5467 5461 5457 5453 5448 5441 5434 5429 5426 5420 5412 5406 5401 5393 5388 5384 5378 5371 5364 5357 5352 5346 5341 5335 5334 5333 5331 5330 5328 5327 5327 5327 5326 5326 5326
5445 5447 5450 5453 5455 5457 5459 5461 5462 5464 5464 5465 5466 5465 5465 5465 5465 5461 5457 5454 5450 5444 5438 5432 5425 5419 5414 5408 5401 5396 5391 5384 5380 5376 5373 5368 5360 5354 5348 5342 5336 5331 5326 5325 5324 5322 5321 5320 5320 5319 5319 5319 5319 5319
5439 5442 5445 5446 5448 5450 5452 5453 5453 5454 5455 5455 5455 5452 5453 5452 5450 5444 5441 5437 5432 5426 5421 5416 5412 5404 5400 5394 5386 5381 5375 5370 5369 5367 5363 5359 5354 5348 5341 5334 5328 5323 5319 5317 5316 5315 5314 5314 5313 5313 5313 5313 5312 5312
5434 5436 5438 5440 5441 5442 5443 5444 5443 5444 5444 5443 5441 5439 5438 5435 5433 5429 5425 5420 5413 5409 5403 5398 5394 5389 5385 5380 5374 5369 5364 5360 5358 5356 5353 5349 5344 5339 5333 5327 5321 5317 5313 5311 5310 5309 5308 5308 5307 5307 5307 5306 5306 5306
5428 5430 5432 5432 5432 5432 5433 5434 5433 5433 5432 5430 5427 5424 5421 5418 5421 5416 5408 5404 5399 5393 5388 5384 5379 5374 5369 5366 5362 5360 5356 5353 5350 5347 5344 5340 5335 5330 5325 5320 5315 5311 5308 5306 5304 5303 5302 5302 5301 5301 5301 5300 5300 5300
5422 5424 5425 5425 5425 5424 5424 5424 5424 5423 5421 5418 5413 5407 5403 5401 5402 5402 5398 5391 5385 5379 5374 5369 5365 5361 5358 5355 5352 5350 5348 5347 5344 5341 5337 5332 5327 5322 5317 5313 5309 5306 5303 5301 5299 5298 5297 5297 5296 5296 5295 5295 5295 5295
5414 5415 5415 5415 5415 5414 5413 5412 5412 5411 5409 5405 5401 5396 5392 5389 5388 5389 5385 5378 5373 5367 5363 5360 5356 5353 5350 5347 5345 5343 5341 5338 5336 5332 5328 5324 5319 5314 5310 5307 5304 5301 5298 5296 5295 5294 5293 5292 5292 5291 5290 5290 5290 5291